Time,TemperatureF,DewpointF,PressureIn,WindDirection,WindDirectionDegrees,WindSpeedMPH,WindSpeedGustMPH,Humidity,HourlyPrecipIn,Conditions,Clouds,dailyrainin,SoftwareType,DateUTC
2013-02-08 00:01:00,40.7,37.7,29.98,North,11,6.3,9.4,89,0.00,,,0.00,WUHU216HW,2013-02-08 06:01:00,
2013-02-08 00:06:00,40.7,38.0,29.98,North,0,4.2,9.4,90,0.00,,,0.00,WUHU216HW,2013-02-08 06:06:00,
2013-02-08 00:11:00,40.5,37.5,29.98,North,0,8.1,9.4,89,0.00,,,0.00,WUHU216HW,2013-02-08 06:11:00,
2013-02-08 00:16:00,40.3,37.4,29.98,North,0,2.9,9.4,89,0.00,,,0.00,WUHU216HW,2013-02-08 06:16:00,
2013-02-08 00:21:00,40.1,37.4,29.98,North,0,4.5,6.9,90,0.00,,,0.00,WUHU216HW,2013-02-08 06:21:00,
2013-02-08 00:26:00,40.0,37.3,29.99,NNE,23,8.1,8.1,90,0.00,,,0.00,WUHU216HW,2013-02-08 06:26:00,
2013-02-08 00:31:00,39.8,37.1,29.99,North,0,5.4,8.1,90,0.00,,,0.00,WUHU216HW,2013-02-08 06:31:00,
2013-02-08 00:36:00,39.6,36.9,29.99,North,0,3.6,5.4,90,0.00,,,0.00,WUHU216HW,2013-02-08 06:36:00,
2013-02-08 00:41:00,39.2,36.5,29.99,North,0,6.5,7.2,90,0.00,,,0.00,WUHU216HW,2013-02-08 06:41:00,
2013-02-08 00:46:00,39.1,36.4,30.00,NNW,345,3.6,7.2,90,0.00,,,0.00,WUHU216HW,2013-02-08 06:46:00,
2013-02-08 00:51:00,38.9,36.2,30.00,North,0,6.7,6.9,90,0.00,,,0.00,WUHU216HW,2013-02-08 06:51:00,
2013-02-08 00:56:00,38.5,35.8,30.00,North,0,4.0,6.7,90,0.00,,,0.00,WUHU216HW,2013-02-08 06:56:00,
2013-02-08 01:01:00,38.2,35.2,30.00,NNW,346,4.3,4.7,89,0.00,,,0.00,WUHU216HW,2013-02-08 07:01:00,
2013-02-08 01:06:00,37.8,34.8,30.01,North,10,5.3,6.3,89,0.00,,,0.00,WUHU216HW,2013-02-08 07:06:00,
2013-02-08 01:11:00,37.6,34.7,30.01,North,0,5.4,6.9,89,0.00,,,0.00,WUHU216HW,2013-02-08 07:11:00,
2013-02-08 01:16:00,37.4,34.5,30.01,NNW,338,1.8,6.9,89,0.00,,,0.00,WUHU216HW,2013-02-08 07:16:00,
2013-02-08 01:21:00,37.4,34.2,30.01,NW,315,7.6,7.6,88,0.00,,,0.00,WUHU216HW,2013-02-08 07:21:00,
2013-02-08 01:26:00,37.1,33.9,30.01,North,0,6.5,7.6,88,0.00,,,0.00,WUHU216HW,2013-02-08 07:26:00,
2013-02-08 01:31:00,36.7,33.5,30.01,WNW,293,6.7,8.7,88,0.00,,,0.00,WUHU216HW,2013-02-08 07:31:00,
2013-02-08 01:36:00,36.2,33.0,30.01,NNE,23,9.8,9.8,88,0.00,,,0.00,WUHU216HW,2013-02-08 07:36:00,
2013-02-08 01:41:00,35.6,32.4,30.02,WNW,284,5.6,9.8,88,0.00,,,0.00,WUHU216HW,2013-02-08 07:41:00,
2013-02-08 01:46:00,35.3,32.1,30.02,North,0,4.5,5.8,88,0.00,,,0.00,WUHU216HW,2013-02-08 07:46:00,
2013-02-08 01:51:00,34.9,31.7,30.03,NNW,338,6.0,7.2,88,0.00,,,0.00,WUHU216HW,2013-02-08 07:51:00,
2013-02-08 01:56:00,34.7,31.5,30.03,NNW,334,6.8,7.8,88,0.00,,,0.00,WUHU216HW,2013-02-08 07:56:00,
2013-02-08 02:01:00,34.6,31.3,30.03,North,0,4.9,7.8,88,0.00,,,0.00,WUHU216HW,2013-02-08 08:01:00,
2013-02-08 02:06:00,34.6,31.3,30.03,North,0,5.6,7.6,88,0.00,,,0.00,WUHU216HW,2013-02-08 08:06:00,
2013-02-08 02:11:00,34.6,31.0,30.03,NNE,23,4.7,7.6,87,0.00,,,0.00,WUHU216HW,2013-02-08 08:11:00,
2013-02-08 02:16:00,34.6,31.0,30.03,North,353,3.3,7.6,87,0.00,,,0.00,WUHU216HW,2013-02-08 08:16:00,
2013-02-08 02:21:00,34.6,31.0,30.03,NNE,14,5.6,6.9,87,0.00,,,0.00,WUHU216HW,2013-02-08 08:21:00,
2013-02-08 02:26:00,34.2,30.3,30.03,NNW,338,7.2,7.6,86,0.00,,,0.00,WUHU216HW,2013-02-08 08:26:00,
2013-02-08 02:31:00,34.2,30.3,30.04,North,0,3.3,7.6,86,0.00,,,0.00,WUHU216HW,2013-02-08 08:31:00,
2013-02-08 02:36:00,34.0,30.4,30.03,North,0,5.4,5.4,87,0.00,,,0.00,WUHU216HW,2013-02-08 08:36:00,
2013-02-08 02:41:00,34.0,30.4,30.04,North,0,4.3,5.4,87,0.00,,,0.00,WUHU216HW,2013-02-08 08:41:00,
2013-02-08 02:46:00,33.8,30.0,30.04,North,0,4.9,7.2,86,0.00,,,0.00,WUHU216HW,2013-02-08 08:46:00,
2013-02-08 02:51:00,33.5,29.7,30.04,North,0,4.3,7.6,86,0.00,,,0.00,WUHU216HW,2013-02-08 08:51:00,
2013-02-08 02:56:00,33.5,29.7,30.04,NNW,343,5.7,11.6,86,0.00,,,0.00,WUHU216HW,2013-02-08 08:56:00,
2013-02-08 03:01:00,33.3,29.5,30.04,North,353,5.5,11.6,86,0.00,,,0.00,WUHU216HW,2013-02-08 09:01:00,
2013-02-08 03:06:00,33.1,29.3,30.04,North,0,4.7,10.1,86,0.00,,,0.00,WUHU216HW,2013-02-08 09:06:00,
2013-02-08 03:11:00,33.1,29.3,30.04,North,0,5.5,10.1,86,0.00,,,0.00,WUHU216HW,2013-02-08 09:11:00,
2013-02-08 03:16:00,33.1,29.6,30.05,NNE,23,2.7,8.5,87,0.00,,,0.00,WUHU216HW,2013-02-08 09:16:00,
2013-02-08 03:21:00,33.3,29.8,30.05,North,0,3.4,5.8,87,0.00,,,0.00,WUHU216HW,2013-02-08 09:21:00,
2013-02-08 03:26:00,33.3,29.8,30.05,NW,315,2.2,4.9,87,0.00,,,0.00,WUHU216HW,2013-02-08 09:26:00,
2013-02-08 03:31:00,33.3,29.8,30.05,North,0,3.6,4.9,87,0.00,,,0.00,WUHU216HW,2013-02-08 09:31:00,
2013-02-08 03:36:00,33.3,30.1,30.05,North,0,5.6,5.6,88,0.00,,,0.00,WUHU216HW,2013-02-08 09:36:00,
2013-02-08 03:41:00,33.3,29.8,30.06,NE,45,5.4,7.2,87,0.00,,,0.00,WUHU216HW,2013-02-08 09:41:00,
2013-02-08 03:46:00,33.1,29.6,30.06,NNW,338,4.8,7.2,87,0.00,,,0.00,WUHU216HW,2013-02-08 09:46:00,
2013-02-08 03:51:00,33.1,29.3,30.06,NNW,338,4.0,6.9,86,0.00,,,0.00,WUHU216HW,2013-02-08 09:51:00,
2013-02-08 03:56:00,32.8,29.0,30.06,North,0,3.3,6.3,86,0.00,,,0.00,WUHU216HW,2013-02-08 09:56:00,
2013-02-08 04:01:00,32.8,29.0,30.07,NNE,18,5.1,6.0,86,0.00,,,0.00,WUHU216HW,2013-02-08 10:01:00,
2013-02-08 04:06:00,32.8,29.0,30.07,North,0,4.7,6.7,86,0.00,,,0.00,WUHU216HW,2013-02-08 10:06:00,
2013-02-08 04:11:00,32.6,28.9,30.07,NW,323,7.3,9.4,86,0.00,,,0.00,WUHU216HW,2013-02-08 10:11:00,
2013-02-08 04:16:00,32.6,28.9,30.07,North,0,7.6,9.8,86,0.00,,,0.00,WUHU216HW,2013-02-08 10:16:00,
2013-02-08 04:21:00,32.6,28.9,30.07,North,0,6.9,9.8,86,0.00,,,0.00,WUHU216HW,2013-02-08 10:21:00,
2013-02-08 04:26:00,32.6,28.9,30.08,NNW,332,4.1,6.9,86,0.00,,,0.00,WUHU216HW,2013-02-08 10:26:00,
2013-02-08 04:31:00,32.6,28.9,30.08,North,0,4.0,4.7,86,0.00,,,0.00,WUHU216HW,2013-02-08 10:31:00,
2013-02-08 04:36:00,32.6,28.9,30.08,NNW,338,3.1,4.0,86,0.00,,,0.00,WUHU216HW,2013-02-08 10:36:00,
2013-02-08 04:41:00,32.6,28.9,30.08,North,0,5.4,6.0,86,0.00,,,0.00,WUHU216HW,2013-02-08 10:41:00,
2013-02-08 04:46:00,32.8,29.4,30.09,NNW,338,1.3,6.0,87,0.00,,,0.00,WUHU216HW,2013-02-08 10:46:00,
2013-02-08 04:51:00,32.8,29.0,30.09,North,0,4.7,4.7,86,0.00,,,0.00,WUHU216HW,2013-02-08 10:51:00,
2013-02-08 04:56:00,32.6,28.9,30.09,North,0,4.7,6.7,86,0.00,,,0.00,WUHU216HW,2013-02-08 10:56:00,
2013-02-08 05:01:00,32.6,28.9,30.09,NNE,30,6.8,6.9,86,0.00,,,0.00,WUHU216HW,2013-02-08 11:01:00,
2013-02-08 05:06:00,32.4,28.5,30.09,North,0,5.1,7.6,85,0.00,,,0.00,WUHU216HW,2013-02-08 11:06:00,
2013-02-08 05:11:00,32.4,28.5,30.09,NNW,338,9.8,9.8,85,0.00,,,0.00,WUHU216HW,2013-02-08 11:11:00,
2013-02-08 05:16:00,32.4,28.5,30.10,North,0,6.9,9.8,85,0.00,,,0.00,WUHU216HW,2013-02-08 11:16:00,
2013-02-08 05:21:00,32.4,28.5,30.10,North,0,6.3,7.4,85,0.00,,,0.00,WUHU216HW,2013-02-08 11:21:00,
2013-02-08 05:26:00,32.4,28.5,30.09,North,0,7.6,7.6,85,0.00,,,0.00,WUHU216HW,2013-02-08 11:26:00,
2013-02-08 05:31:00,32.4,28.5,30.10,North,0,5.2,7.6,85,0.00,,,0.00,WUHU216HW,2013-02-08 11:31:00,
2013-02-08 05:36:00,32.4,28.5,30.10,NNE,23,4.0,7.6,85,0.00,,,0.00,WUHU216HW,2013-02-08 11:36:00,
2013-02-08 05:41:00,32.4,28.5,30.10,North,0,2.9,4.9,85,0.00,,,0.00,WUHU216HW,2013-02-08 11:41:00,
2013-02-08 05:46:00,32.4,28.5,30.10,NNW,338,4.1,5.1,85,0.00,,,0.00,WUHU216HW,2013-02-08 11:46:00,
2013-02-08 05:51:00,32.4,28.5,30.11,NNW,338,3.7,6.0,85,0.00,,,0.00,WUHU216HW,2013-02-08 11:51:00,
2013-02-08 05:56:00,32.4,28.5,30.11,WNW,299,3.1,6.0,85,0.00,,,0.00,WUHU216HW,2013-02-08 11:56:00,
2013-02-08 06:01:00,32.2,28.3,30.11,North,0,5.4,5.4,85,0.00,,,0.00,WUHU216HW,2013-02-08 12:01:00,
2013-02-08 06:06:00,32.2,28.0,30.11,NNW,338,3.8,9.2,84,0.00,,,0.00,WUHU216HW,2013-02-08 12:06:00,
2013-02-08 06:11:00,32.2,28.0,30.12,North,0,7.4,9.2,84,0.00,,,0.00,WUHU216HW,2013-02-08 12:11:00,
2013-02-08 06:16:00,32.2,28.0,30.12,North,0,6.7,8.5,84,0.00,,,0.00,WUHU216HW,2013-02-08 12:16:00,
2013-02-08 06:21:00,32.0,27.8,30.12,North,0,6.3,7.4,84,0.00,,,0.00,WUHU216HW,2013-02-08 12:21:00,
2013-02-08 06:26:00,32.2,28.0,30.12,North,0,4.7,7.4,84,0.00,,,0.00,WUHU216HW,2013-02-08 12:26:00,
2013-02-08 06:31:00,32.0,27.8,30.13,NNW,348,3.2,6.0,84,0.00,,,0.00,WUHU216HW,2013-02-08 12:31:00,
2013-02-08 06:36:00,32.0,27.8,30.13,North,0,7.6,7.6,84,0.00,,,0.00,WUHU216HW,2013-02-08 12:36:00,
2013-02-08 06:41:00,32.2,28.0,30.13,North,0,4.9,7.6,84,0.00,,,0.00,WUHU216HW,2013-02-08 12:41:00,
2013-02-08 06:46:00,32.2,28.0,30.13,North,0,4.9,6.3,84,0.00,,,0.00,WUHU216HW,2013-02-08 12:46:00,
2013-02-08 06:51:00,32.2,28.0,30.13,North,0,2.9,6.3,84,0.00,,,0.00,WUHU216HW,2013-02-08 12:51:00,
2013-02-08 06:56:00,32.2,28.0,30.13,North,0,2.7,4.5,84,0.00,,,0.00,WUHU216HW,2013-02-08 12:56:00,
2013-02-08 07:01:00,32.4,28.1,30.13,NNE,13,3.2,5.4,84,0.00,,,0.00,WUHU216HW,2013-02-08 13:01:00,
2013-02-08 07:06:00,32.2,28.0,30.14,NNE,14,3.7,5.4,84,0.00,,,0.00,WUHU216HW,2013-02-08 13:06:00,
2013-02-08 07:11:00,32.4,28.1,30.14,North,0,7.6,7.6,84,0.00,,,0.00,WUHU216HW,2013-02-08 13:11:00,
2013-02-08 07:16:00,32.2,28.0,30.14,NNE,14,4.5,7.6,84,0.00,,,0.00,WUHU216HW,2013-02-08 13:16:00,
2013-02-08 07:21:00,32.4,28.1,30.14,North,0,4.3,6.3,84,0.00,,,0.00,WUHU216HW,2013-02-08 13:21:00,
2013-02-08 07:26:00,32.2,27.6,30.14,NNE,23,3.6,4.5,83,0.00,,,0.00,WUHU216HW,2013-02-08 13:26:00,
2013-02-08 07:31:00,32.4,27.8,30.14,NNW,330,4.1,6.0,83,0.00,,,0.00,WUHU216HW,2013-02-08 13:31:00,
2013-02-08 07:36:00,32.2,27.6,30.14,NNW,338,3.8,6.0,83,0.00,,,0.00,WUHU216HW,2013-02-08 13:36:00,
2013-02-08 07:41:00,32.4,27.8,30.15,North,0,5.4,5.4,83,0.00,,,0.00,WUHU216HW,2013-02-08 13:41:00,
2013-02-08 07:46:00,32.4,27.8,30.15,North,351,3.3,5.8,83,0.00,,,0.00,WUHU216HW,2013-02-08 13:46:00,
2013-02-08 07:51:00,32.6,28.3,30.15,North,0,3.8,5.8,84,0.00,,,0.00,WUHU216HW,2013-02-08 13:51:00,
2013-02-08 07:56:00,32.6,28.0,30.16,North,351,3.3,4.0,83,0.00,,,0.00,WUHU216HW,2013-02-08 13:56:00,
2013-02-08 08:01:00,32.6,28.0,30.16,North,0,3.6,4.7,83,0.00,,,0.00,WUHU216HW,2013-02-08 14:01:00,
2013-02-08 08:06:00,32.6,28.0,30.16,NNW,338,2.5,4.7,83,0.00,,,0.00,WUHU216HW,2013-02-08 14:06:00,
2013-02-08 08:11:00,32.8,28.2,30.16,North,7,2.5,4.0,83,0.00,,,0.00,WUHU216HW,2013-02-08 14:11:00,
2013-02-08 08:16:00,32.8,28.2,30.16,NNW,338,2.5,3.4,83,0.00,,,0.00,WUHU216HW,2013-02-08 14:16:00,
2013-02-08 08:21:00,33.1,28.4,30.16,NNW,342,1.6,3.8,83,0.00,,,0.00,WUHU216HW,2013-02-08 14:21:00,
2013-02-08 08:26:00,33.1,28.4,30.16,NW,315,2.5,3.8,83,0.00,,,0.00,WUHU216HW,2013-02-08 14:26:00,
2013-02-08 08:31:00,33.1,28.4,30.17,North,0,4.7,4.7,83,0.00,,,0.00,WUHU216HW,2013-02-08 14:31:00,
2013-02-08 08:36:00,33.3,28.6,30.17,North,0,5.4,5.4,83,0.00,,,0.00,WUHU216HW,2013-02-08 14:36:00,
2013-02-08 08:41:00,33.3,28.4,30.17,North,350,4.7,5.4,82,0.00,,,0.00,WUHU216HW,2013-02-08 14:41:00,
2013-02-08 08:46:00,33.5,28.8,30.17,North,0,7.4,7.4,83,0.00,,,0.00,WUHU216HW,2013-02-08 14:46:00,
2013-02-08 08:51:00,33.3,28.4,30.17,North,0,4.0,7.4,82,0.00,,,0.00,WUHU216HW,2013-02-08 14:51:00,
2013-02-08 08:56:00,33.3,28.1,30.17,North,0,3.6,5.4,81,0.00,,,0.00,WUHU216HW,2013-02-08 14:56:00,
2013-02-08 09:01:00,33.3,28.4,30.17,North,6,3.2,5.8,82,0.00,,,0.00,WUHU216HW,2013-02-08 15:01:00,
2013-02-08 09:06:00,33.7,28.4,30.17,NNW,347,1.5,5.8,81,0.00,,,0.00,WUHU216HW,2013-02-08 15:06:00,
2013-02-08 09:11:00,33.8,28.5,30.18,North,8,4.7,7.6,81,0.00,,,0.00,WUHU216HW,2013-02-08 15:11:00,
2013-02-08 09:16:00,34.0,29.0,30.18,NNE,15,2.7,7.6,82,0.00,,,0.00,WUHU216HW,2013-02-08 15:16:00,
2013-02-08 09:21:00,34.2,29.2,30.18,North,0,4.0,5.4,82,0.00,,,0.00,WUHU216HW,2013-02-08 15:21:00,
2013-02-08 09:26:00,34.2,28.6,30.18,NNE,13,4.9,5.8,80,0.00,,,0.00,WUHU216HW,2013-02-08 15:26:00,
2013-02-08 09:31:00,34.4,29.1,30.18,North,0,6.1,6.3,81,0.00,,,0.00,WUHU216HW,2013-02-08 15:31:00,
2013-02-08 09:36:00,35.6,30.1,30.18,NE,40,2.2,6.3,80,0.00,,,0.00,WUHU216HW,2013-02-08 15:36:00,
2013-02-08 09:41:00,36.7,30.5,30.18,NNE,15,2.5,4.7,78,0.00,,,0.00,WUHU216HW,2013-02-08 15:41:00,
2013-02-08 09:46:00,37.3,30.4,30.18,North,0,4.0,5.4,76,0.00,,,0.00,WUHU216HW,2013-02-08 15:46:00,
2013-02-08 09:51:00,37.4,30.9,30.18,NNE,23,7.2,7.2,77,0.00,,,0.00,WUHU216HW,2013-02-08 15:51:00,
2013-02-08 09:56:00,37.8,30.9,30.18,North,0,4.9,7.2,76,0.00,,,0.00,WUHU216HW,2013-02-08 15:56:00,
2013-02-08 10:01:00,37.4,30.6,30.19,ENE,68,1.9,6.9,76,0.00,,,0.00,WUHU216HW,2013-02-08 16:01:00,
2013-02-08 10:06:00,38.0,30.8,30.19,North,351,2.6,6.9,75,0.00,,,0.00,WUHU216HW,2013-02-08 16:06:00,
2013-02-08 10:11:00,37.3,30.1,30.19,SSE,147,0.8,4.7,75,0.00,,,0.00,WUHU216HW,2013-02-08 16:11:00,
2013-02-08 10:16:00,37.4,30.6,30.19,NNE,15,1.7,4.3,76,0.00,,,0.00,WUHU216HW,2013-02-08 16:16:00,
2013-02-08 10:21:00,37.4,30.6,30.20,NNW,346,1.5,4.0,76,0.00,,,0.00,WUHU216HW,2013-02-08 16:21:00,
2013-02-08 10:26:00,36.9,30.3,30.19,NNE,23,5.6,6.9,77,0.00,,,0.00,WUHU216HW,2013-02-08 16:26:00,
2013-02-08 10:31:00,37.1,30.3,30.19,NNW,338,2.5,6.9,76,0.00,,,0.00,WUHU216HW,2013-02-08 16:31:00,
2013-02-08 10:36:00,37.6,30.8,30.19,North,0,4.0,4.0,76,0.00,,,0.00,WUHU216HW,2013-02-08 16:36:00,
2013-02-08 10:41:00,37.8,30.9,30.19,North,358,2.0,4.0,76,0.00,,,0.00,WUHU216HW,2013-02-08 16:41:00,
2013-02-08 10:46:00,38.7,31.8,30.19,North,0,4.7,4.7,76,0.00,,,0.00,WUHU216HW,2013-02-08 16:46:00,
2013-02-08 10:51:00,38.7,31.2,30.19,North,3,4.3,4.7,74,0.00,,,0.00,WUHU216HW,2013-02-08 16:51:00,
2013-02-08 10:56:00,39.1,31.2,30.19,North,0,2.3,7.4,73,0.00,,,0.00,WUHU216HW,2013-02-08 16:56:00,
2013-02-08 11:01:00,39.6,31.6,30.18,North,0,4.0,7.4,73,0.00,,,0.00,WUHU216HW,2013-02-08 17:01:00,
2013-02-08 11:06:00,40.0,32.0,30.18,North,9,2.5,4.7,73,0.00,,,0.00,WUHU216HW,2013-02-08 17:06:00,
2013-02-08 11:11:00,39.6,31.6,30.18,North,0,2.9,6.7,73,0.00,,,0.00,WUHU216HW,2013-02-08 17:11:00,
2013-02-08 11:16:00,40.5,32.1,30.18,East,99,1.6,6.7,72,0.00,,,0.00,WUHU216HW,2013-02-08 17:16:00,
2013-02-08 11:21:00,41.0,32.4,30.18,NNE,23,1.1,4.3,71,0.00,,,0.00,WUHU216HW,2013-02-08 17:21:00,
2013-02-08 11:26:00,41.4,32.4,30.17,North,0,3.4,3.6,70,0.00,,,0.00,WUHU216HW,2013-02-08 17:26:00,
2013-02-08 11:31:00,41.8,33.1,30.17,ESE,113,3.1,3.6,71,0.00,,,0.00,WUHU216HW,2013-02-08 17:31:00,
2013-02-08 11:36:00,42.5,32.3,30.17,NE,48,2.3,3.1,67,0.00,,,0.00,WUHU216HW,2013-02-08 17:36:00,
2013-02-08 11:41:00,41.8,31.6,30.17,NE,45,4.5,4.5,67,0.00,,,0.00,WUHU216HW,2013-02-08 17:41:00,
2013-02-08 11:46:00,42.1,32.3,30.17,NNW,338,1.1,4.5,68,0.00,,,0.00,WUHU216HW,2013-02-08 17:46:00,
2013-02-08 11:51:00,42.8,33.0,30.17,North,0,2.7,2.7,68,0.00,,,0.00,WUHU216HW,2013-02-08 17:51:00,
2013-02-08 11:56:00,43.4,33.1,30.17,North,9,0.9,2.7,67,0.00,,,0.00,WUHU216HW,2013-02-08 17:56:00,
2013-02-08 12:01:00,43.6,33.0,30.17,NNW,338,2.2,2.2,66,0.00,,,0.00,WUHU216HW,2013-02-08 18:01:00,
2013-02-08 12:06:00,43.4,32.4,30.17,NNW,338,1.8,5.8,65,0.00,,,0.00,WUHU216HW,2013-02-08 18:06:00,
2013-02-08 12:11:00,43.0,32.1,30.17,SE,135,1.6,5.8,65,0.00,,,0.00,WUHU216HW,2013-02-08 18:11:00,
2013-02-08 12:16:00,43.2,32.2,30.17,NNE,12,0.8,4.0,65,0.00,,,0.00,WUHU216HW,2013-02-08 18:16:00,
2013-02-08 12:21:00,43.4,32.8,30.16,SSE,161,2.0,2.7,66,0.00,,,0.00,WUHU216HW,2013-02-08 18:21:00,
2013-02-08 12:26:00,43.7,32.8,30.15,ESE,113,3.4,3.4,65,0.00,,,0.00,WUHU216HW,2013-02-08 18:26:00,
2013-02-08 12:31:00,43.9,32.1,30.15,SE,135,1.8,3.4,63,0.00,,,0.00,WUHU216HW,2013-02-08 18:31:00,
2013-02-08 12:37:00,43.7,32.8,30.15,North,0,3.8,3.8,65,0.00,,,0.00,WUHU216HW,2013-02-08 18:37:00,
2013-02-08 12:42:00,44.1,33.0,30.15,NNW,338,2.5,3.8,65,0.00,,,0.00,WUHU216HW,2013-02-08 18:42:00,
2013-02-08 12:47:00,44.5,33.4,30.15,NW,315,2.2,5.4,65,0.00,,,0.00,WUHU216HW,2013-02-08 18:47:00,
2013-02-08 12:52:00,44.8,32.6,30.15,NNE,32,0.8,5.4,62,0.00,,,0.00,WUHU216HW,2013-02-08 18:52:00,
2013-02-08 12:57:00,45.0,33.1,30.14,South,180,0.4,5.4,63,0.00,,,0.00,WUHU216HW,2013-02-08 18:57:00,
2013-02-08 13:02:00,45.2,33.0,30.14,North,0,0.9,2.7,62,0.00,,,0.00,WUHU216HW,2013-02-08 19:02:00,
2013-02-08 13:07:00,45.2,32.1,30.14,SE,135,3.1,3.1,60,0.00,,,0.00,WUHU216HW,2013-02-08 19:07:00,
2013-02-08 13:12:00,45.0,32.8,30.14,SSE,156,1.7,3.1,62,0.00,,,0.00,WUHU216HW,2013-02-08 19:12:00,
2013-02-08 13:17:00,45.7,33.4,30.14,WSW,248,0.2,2.5,62,0.00,,,0.00,WUHU216HW,2013-02-08 19:17:00,
2013-02-08 13:22:00,46.1,32.0,30.14,SSE,158,1.8,2.5,58,0.00,,,0.00,WUHU216HW,2013-02-08 19:22:00,
2013-02-08 13:27:00,45.9,32.4,30.14,NNE,17,1.5,3.4,59,0.00,,,0.00,WUHU216HW,2013-02-08 19:27:00,
2013-02-08 13:32:00,45.9,32.4,30.14,SSE,151,1.1,3.4,59,0.00,,,0.00,WUHU216HW,2013-02-08 19:32:00,
2013-02-08 13:37:00,46.1,33.4,30.14,South,180,2.0,2.9,61,0.00,,,0.00,WUHU216HW,2013-02-08 19:37:00,
2013-02-08 13:42:00,46.4,33.7,30.14,North,0,1.8,2.9,61,0.00,,,0.00,WUHU216HW,2013-02-08 19:42:00,
2013-02-08 13:47:00,46.4,33.7,30.15,North,0,1.8,2.5,61,0.00,,,0.00,WUHU216HW,2013-02-08 19:47:00,
2013-02-08 13:52:00,47.0,33.8,30.16,NW,315,3.6,3.6,60,0.00,,,0.00,WUHU216HW,2013-02-08 19:52:00,
2013-02-08 13:57:00,47.0,33.8,30.17,North,0,1.1,3.6,60,0.00,,,0.00,WUHU216HW,2013-02-08 19:57:00,
2013-02-08 14:02:00,47.0,34.2,30.17,North,0,3.6,3.6,61,0.00,,,0.00,WUHU216HW,2013-02-08 20:02:00,
2013-02-08 14:07:00,47.2,33.6,30.17,North,355,2.9,4.5,59,0.00,,,0.00,WUHU216HW,2013-02-08 20:07:00,
2013-02-08 14:12:00,47.3,34.6,30.16,North,353,1.3,4.5,61,0.00,,,0.00,WUHU216HW,2013-02-08 20:12:00,
2013-02-08 14:17:00,47.5,33.9,30.16,WNW,293,2.0,3.6,59,0.00,,,0.00,WUHU216HW,2013-02-08 20:17:00,
2013-02-08 14:22:00,47.5,33.9,30.16,WSW,248,0.6,3.6,59,0.00,,,0.00,WUHU216HW,2013-02-08 20:22:00,
2013-02-08 14:27:00,47.5,33.5,30.16,North,0,2.2,4.0,58,0.00,,,0.00,WUHU216HW,2013-02-08 20:27:00,
2013-02-08 14:32:00,47.5,33.9,30.16,North,352,0.3,4.0,59,0.00,,,0.00,WUHU216HW,2013-02-08 20:32:00,
2013-02-08 14:37:00,47.3,33.3,30.15,North,0,3.4,3.4,58,0.00,,,0.00,WUHU216HW,2013-02-08 20:37:00,
2013-02-08 14:42:00,47.7,33.7,30.14,North,0,3.3,4.9,58,0.00,,,0.00,WUHU216HW,2013-02-08 20:42:00,
2013-02-08 14:47:00,47.7,34.1,30.14,North,351,2.2,4.9,59,0.00,,,0.00,WUHU216HW,2013-02-08 20:47:00,
2013-02-08 14:52:00,47.7,34.1,30.15,North,0,1.2,4.7,59,0.00,,,0.00,WUHU216HW,2013-02-08 20:52:00,
2013-02-08 14:57:00,47.9,35.1,30.15,North,5,1.7,4.5,61,0.00,,,0.00,WUHU216HW,2013-02-08 20:57:00,
2013-02-08 15:02:00,47.9,34.3,30.15,North,0,4.3,4.5,59,0.00,,,0.00,WUHU216HW,2013-02-08 21:02:00,
2013-02-08 15:07:00,47.7,33.7,30.15,NNW,338,2.0,4.3,58,0.00,,,0.00,WUHU216HW,2013-02-08 21:07:00,
2013-02-08 15:12:00,47.5,33.9,30.15,North,0,4.0,5.1,59,0.00,,,0.00,WUHU216HW,2013-02-08 21:12:00,
2013-02-08 15:17:00,47.5,33.9,30.14,North,0,3.5,5.1,59,0.00,,,0.00,WUHU216HW,2013-02-08 21:17:00,
2013-02-08 15:22:00,47.7,34.6,30.14,North,0,0.4,4.5,60,0.00,,,0.00,WUHU216HW,2013-02-08 21:22:00,
2013-02-08 15:27:00,47.9,34.3,30.13,NNE,23,3.1,4.0,59,0.00,,,0.00,WUHU216HW,2013-02-08 21:27:00,
2013-02-08 15:32:00,48.2,34.2,30.12,ENE,68,1.1,4.0,58,0.00,,,0.00,WUHU216HW,2013-02-08 21:32:00,
2013-02-08 15:37:00,48.1,34.0,30.12,North,0,3.6,6.5,58,0.00,,,0.00,WUHU216HW,2013-02-08 21:37:00,
2013-02-08 15:42:00,47.9,33.9,30.12,North,0,3.6,6.5,58,0.00,,,0.00,WUHU216HW,2013-02-08 21:42:00,
2013-02-08 15:47:00,48.1,34.0,30.12,NNE,23,2.3,4.5,58,0.00,,,0.00,WUHU216HW,2013-02-08 21:47:00,
2013-02-08 15:52:00,48.1,34.0,30.12,North,0,3.4,3.4,58,0.00,,,0.00,WUHU216HW,2013-02-08 21:52:00,
2013-02-08 15:57:00,47.9,33.4,30.12,WSW,244,1.4,3.4,57,0.00,,,0.00,WUHU216HW,2013-02-08 21:57:00,
2013-02-08 16:02:00,47.9,33.9,30.11,North,11,4.9,5.1,58,0.00,,,0.00,WUHU216HW,2013-02-08 22:02:00,
2013-02-08 16:07:00,47.7,33.7,30.12,North,0,1.1,5.1,58,0.00,,,0.00,WUHU216HW,2013-02-08 22:07:00,
2013-02-08 16:12:00,47.9,33.9,30.11,NE,51,2.0,4.7,58,0.00,,,0.00,WUHU216HW,2013-02-08 22:12:00,
2013-02-08 16:17:00,47.5,33.0,30.11,NE,36,2.1,2.2,57,0.00,,,0.00,WUHU216HW,2013-02-08 22:17:00,
2013-02-08 16:22:00,47.7,34.1,30.11,NNE,23,2.9,3.1,59,0.00,,,0.00,WUHU216HW,2013-02-08 22:22:00,
2013-02-08 16:27:00,47.7,33.7,30.12,ESE,113,1.8,4.0,58,0.00,,,0.00,WUHU216HW,2013-02-08 22:27:00,
2013-02-08 16:32:00,47.3,32.9,30.11,SE,126,1.6,4.0,57,0.00,,,0.00,WUHU216HW,2013-02-08 22:32:00,
2013-02-08 16:37:00,47.3,33.8,30.12,North,0,1.1,2.0,59,0.00,,,0.00,WUHU216HW,2013-02-08 22:37:00,
2013-02-08 16:42:00,47.3,33.3,30.12,North,356,1.1,2.7,58,0.00,,,0.00,WUHU216HW,2013-02-08 22:42:00,
2013-02-08 16:47:00,47.2,34.0,30.11,NNE,23,0.2,2.7,60,0.00,,,0.00,WUHU216HW,2013-02-08 22:47:00,
2013-02-08 16:52:00,47.2,33.6,30.12,NNW,338,1.8,1.8,59,0.00,,,0.00,WUHU216HW,2013-02-08 22:52:00,
2013-02-08 16:57:00,47.5,33.5,30.12,North,0,0.4,1.8,58,0.00,,,0.00,WUHU216HW,2013-02-08 22:57:00,
2013-02-08 17:02:00,47.2,33.6,30.13,SE,135,0.4,1.8,59,0.00,,,0.00,WUHU216HW,2013-02-08 23:02:00,
2013-02-08 17:07:00,47.0,33.4,30.13,East,90,0.0,0.4,59,0.00,,,0.00,WUHU216HW,2013-02-08 23:07:00,
2013-02-08 17:12:00,46.8,32.8,30.13,ENE,68,0.0,0.4,58,0.00,,,0.00,WUHU216HW,2013-02-08 23:12:00,
2013-02-08 17:17:00,46.4,32.9,30.12,ENE,68,0.2,0.4,59,0.00,,,0.00,WUHU216HW,2013-02-08 23:17:00,
2013-02-08 17:22:00,46.1,32.9,30.13,SE,135,0.4,0.4,60,0.00,,,0.00,WUHU216HW,2013-02-08 23:22:00,
2013-02-08 17:27:00,45.5,32.9,30.12,North,0,0.0,0.4,61,0.00,,,0.00,WUHU216HW,2013-02-08 23:27:00,
2013-02-08 17:32:00,45.2,32.6,30.12,NNE,23,0.4,0.7,61,0.00,,,0.00,WUHU216HW,2013-02-08 23:32:00,
2013-02-08 17:37:00,44.8,32.6,30.13,North,0,0.4,1.1,62,0.00,,,0.00,WUHU216HW,2013-02-08 23:37:00,
2013-02-08 17:42:00,44.3,32.5,30.13,ENE,68,0.9,1.1,63,0.00,,,0.00,WUHU216HW,2013-02-08 23:42:00,
2013-02-08 17:47:00,43.9,32.5,30.12,ENE,68,0.0,0.9,64,0.00,,,0.00,WUHU216HW,2013-02-08 23:47:00,
2013-02-08 17:52:00,43.4,32.0,30.13,ENE,68,0.2,0.4,64,0.00,,,0.00,WUHU216HW,2013-02-08 23:52:00,
2013-02-08 17:57:00,42.8,31.5,30.13,North,0,0.1,0.4,64,0.00,,,0.00,WUHU216HW,2013-02-08 23:57:00,
2013-02-08 18:02:00,42.5,31.5,30.13,North,0,0.0,1.1,65,0.00,,,0.00,WUHU216HW,2013-02-09 00:02:00,
2013-02-08 18:07:00,42.1,31.6,30.13,North,0,0.4,1.1,66,0.00,,,0.00,WUHU216HW,2013-02-09 00:07:00,
2013-02-08 18:12:00,41.6,31.1,30.14,North,0,1.1,1.1,66,0.00,,,0.00,WUHU216HW,2013-02-09 00:12:00,
2013-02-08 18:17:00,41.4,31.2,30.14,North,0,0.2,1.1,67,0.00,,,0.00,WUHU216HW,2013-02-09 00:17:00,
2013-02-08 18:22:00,41.2,31.1,30.14,NNE,23,0.2,0.9,67,0.00,,,0.00,WUHU216HW,2013-02-09 00:22:00,
2013-02-08 18:27:00,40.9,30.7,30.14,East,90,0.1,0.4,67,0.00,,,0.00,WUHU216HW,2013-02-09 00:27:00,
2013-02-08 18:32:00,40.5,30.3,30.14,North,0,0.1,0.9,67,0.00,,,0.00,WUHU216HW,2013-02-09 00:32:00,
2013-02-08 18:37:00,40.1,31.1,30.14,NE,45,0.1,0.9,70,0.00,,,0.00,WUHU216HW,2013-02-09 00:37:00,
2013-02-08 18:42:00,40.0,30.6,30.14,East,90,0.2,0.4,69,0.00,,,0.00,WUHU216HW,2013-02-09 00:42:00,
2013-02-08 18:47:00,39.8,30.8,30.14,East,90,0.0,0.4,70,0.00,,,0.00,WUHU216HW,2013-02-09 00:47:00,
2013-02-08 18:52:00,39.6,30.6,30.13,East,90,0.0,0.0,70,0.00,,,0.00,WUHU216HW,2013-02-09 00:52:00,
2013-02-08 18:57:00,39.2,30.2,30.13,East,90,0.2,0.4,70,0.00,,,0.00,WUHU216HW,2013-02-09 00:57:00,
2013-02-08 19:02:00,39.1,31.4,30.13,East,90,0.0,0.4,74,0.00,,,0.00,WUHU216HW,2013-02-09 01:02:00,
2013-02-08 19:07:00,39.2,31.6,30.14,SE,135,0.4,1.1,74,0.00,,,0.00,WUHU216HW,2013-02-09 01:07:00,
2013-02-08 19:12:00,39.2,31.6,30.14,SE,135,0.2,1.1,74,0.00,,,0.00,WUHU216HW,2013-02-09 01:12:00,
2013-02-08 19:17:00,39.2,31.6,30.14,SE,135,0.8,1.1,74,0.00,,,0.00,WUHU216HW,2013-02-09 01:17:00,
2013-02-08 19:22:00,39.2,31.6,30.13,ESE,102,0.8,1.1,74,0.00,,,0.00,WUHU216HW,2013-02-09 01:22:00,
2013-02-08 19:27:00,39.2,31.6,30.13,SSE,158,0.6,1.1,74,0.00,,,0.00,WUHU216HW,2013-02-09 01:27:00,
2013-02-08 19:32:00,39.1,31.8,30.13,East,79,0.6,1.3,75,0.00,,,0.00,WUHU216HW,2013-02-09 01:32:00,
2013-02-08 19:37:00,38.7,31.4,30.13,ESE,113,0.4,1.3,75,0.00,,,0.00,WUHU216HW,2013-02-09 01:37:00,
2013-02-08 19:42:00,38.5,31.2,30.12,East,90,0.2,1.1,75,0.00,,,0.00,WUHU216HW,2013-02-09 01:42:00,
2013-02-08 19:47:00,38.3,31.4,30.13,East,90,2.5,2.5,76,0.00,,,0.00,WUHU216HW,2013-02-09 01:47:00,
2013-02-08 19:52:00,38.2,31.2,30.12,ESE,113,3.6,3.6,76,0.00,,,0.00,WUHU216HW,2013-02-09 01:52:00,
2013-02-08 19:57:00,38.0,31.4,30.12,SE,127,1.3,4.7,77,0.00,,,0.00,WUHU216HW,2013-02-09 01:57:00,
2013-02-08 20:02:00,37.8,30.9,30.12,SE,141,1.5,4.7,76,0.00,,,0.00,WUHU216HW,2013-02-09 02:02:00,
2013-02-08 20:07:00,37.6,31.1,30.12,ESE,113,1.8,3.4,77,0.00,,,0.00,WUHU216HW,2013-02-09 02:07:00,
2013-02-08 20:12:00,37.3,30.7,30.12,East,98,1.5,3.4,77,0.00,,,0.00,WUHU216HW,2013-02-09 02:12:00,
2013-02-08 20:17:00,37.1,30.9,30.12,SE,135,1.1,2.2,78,0.00,,,0.00,WUHU216HW,2013-02-09 02:17:00,
2013-02-08 20:22:00,36.9,30.7,30.12,SE,135,1.1,3.4,78,0.00,,,0.00,WUHU216HW,2013-02-09 02:22:00,
2013-02-08 20:27:00,36.7,30.5,30.12,SSE,158,0.9,3.4,78,0.00,,,0.00,WUHU216HW,2013-02-09 02:27:00,
2013-02-08 20:32:00,36.5,30.6,30.12,ESE,113,1.3,2.2,79,0.00,,,0.00,WUHU216HW,2013-02-09 02:32:00,
2013-02-08 20:37:00,36.4,30.4,30.12,East,90,1.3,2.2,79,0.00,,,0.00,WUHU216HW,2013-02-09 02:37:00,
2013-02-08 20:42:00,36.4,30.4,30.12,ESE,113,4.3,4.3,79,0.00,,,0.00,WUHU216HW,2013-02-09 02:42:00,
2013-02-08 20:47:00,36.0,30.4,30.13,ESE,113,0.4,4.3,80,0.00,,,0.00,WUHU216HW,2013-02-09 02:47:00,
2013-02-08 20:52:00,36.0,30.4,30.13,SE,135,2.2,2.7,80,0.00,,,0.00,WUHU216HW,2013-02-09 02:52:00,
2013-02-08 20:57:00,35.8,30.2,30.13,SE,131,1.4,2.9,80,0.00,,,0.00,WUHU216HW,2013-02-09 02:57:00,
2013-02-08 21:02:00,35.6,30.1,30.12,SE,135,1.3,2.9,80,0.00,,,0.00,WUHU216HW,2013-02-09 03:02:00,
2013-02-08 21:07:00,35.5,29.9,30.12,SE,140,2.5,3.1,80,0.00,,,0.00,WUHU216HW,2013-02-09 03:07:00,
2013-02-08 21:12:00,35.3,30.0,30.12,ESE,113,1.8,3.1,81,0.00,,,0.00,WUHU216HW,2013-02-09 03:12:00,
2013-02-08 21:17:00,35.1,29.8,30.12,East,90,2.5,2.9,81,0.00,,,0.00,WUHU216HW,2013-02-09 03:17:00,
2013-02-08 21:22:00,34.9,29.9,30.12,SE,135,2.9,3.1,82,0.00,,,0.00,WUHU216HW,2013-02-09 03:22:00,
2013-02-08 21:27:00,34.9,29.9,30.11,ESE,113,3.3,3.6,82,0.00,,,0.00,WUHU216HW,2013-02-09 03:27:00,
2013-02-08 21:32:00,34.9,29.9,30.11,SE,145,1.2,3.6,82,0.00,,,0.00,WUHU216HW,2013-02-09 03:32:00,
2013-02-08 21:37:00,34.7,29.7,30.12,ESE,116,2.2,3.4,82,0.00,,,0.00,WUHU216HW,2013-02-09 03:37:00,
2013-02-08 21:42:00,34.6,29.5,30.12,ESE,113,2.2,3.4,82,0.00,,,0.00,WUHU216HW,2013-02-09 03:42:00,
2013-02-08 21:47:00,34.6,29.5,30.12,East,97,2.7,4.0,82,0.00,,,0.00,WUHU216HW,2013-02-09 03:47:00,
2013-02-08 21:52:00,34.4,29.3,30.12,ESE,113,3.1,4.0,82,0.00,,,0.00,WUHU216HW,2013-02-09 03:52:00,
2013-02-08 21:57:00,34.2,29.5,30.12,ESE,113,4.0,4.7,83,0.00,,,0.00,WUHU216HW,2013-02-09 03:57:00,
2013-02-08 22:02:00,34.2,29.2,30.11,SE,135,2.4,4.7,82,0.00,,,0.00,WUHU216HW,2013-02-09 04:02:00,
2013-02-08 22:07:00,34.2,29.5,30.11,ESE,113,1.8,4.0,83,0.00,,,0.00,WUHU216HW,2013-02-09 04:07:00,
2013-02-08 22:12:00,34.0,29.4,30.11,ESE,113,3.1,4.0,83,0.00,,,0.00,WUHU216HW,2013-02-09 04:12:00,
2013-02-08 22:17:00,33.8,28.8,30.11,ESE,113,1.8,3.4,82,0.00,,,0.00,WUHU216HW,2013-02-09 04:17:00,
2013-02-08 22:22:00,33.7,29.0,30.11,ESE,113,2.5,2.5,83,0.00,,,0.00,WUHU216HW,2013-02-09 04:22:00,
2013-02-08 22:27:00,33.5,28.8,30.11,ESE,113,0.4,2.5,83,0.00,,,0.00,WUHU216HW,2013-02-09 04:27:00,
2013-02-08 22:32:00,33.3,28.6,30.11,SE,127,0.6,2.0,83,0.00,,,0.00,WUHU216HW,2013-02-09 04:32:00,
2013-02-08 22:37:00,32.9,28.4,30.11,SE,135,0.4,1.3,83,0.00,,,0.00,WUHU216HW,2013-02-09 04:37:00,
2013-02-08 22:42:00,32.8,28.2,30.12,ESE,113,0.1,0.7,83,0.00,,,0.00,WUHU216HW,2013-02-09 04:42:00,
2013-02-08 22:47:00,32.6,28.3,30.12,ESE,113,0.4,0.4,84,0.00,,,0.00,WUHU216HW,2013-02-09 04:47:00,
2013-02-08 22:52:00,32.6,28.3,30.12,ESE,113,0.3,0.4,84,0.00,,,0.00,WUHU216HW,2013-02-09 04:52:00,
2013-02-08 22:57:00,32.4,28.1,30.13,SE,135,0.1,0.4,84,0.00,,,0.00,WUHU216HW,2013-02-09 04:57:00,
2013-02-08 23:00:00,32.4,28.1,30.13,ESE,113,0.4,0.4,84,0.00,,,0.00,WUHU216HW,2013-02-09 05:00:00,
2013-02-08 23:05:00,32.2,28.0,30.12,SE,135,0.4,0.4,84,0.00,,,0.00,WUHU216HW,2013-02-09 05:05:00,
2013-02-08 23:10:00,32.0,27.8,30.12,ESE,113,0.2,0.4,84,0.00,,,0.00,WUHU216HW,2013-02-09 05:10:00,
2013-02-08 23:15:00,32.0,28.1,30.12,ESE,113,0.2,0.7,85,0.00,,,0.00,WUHU216HW,2013-02-09 05:15:00,
2013-02-08 23:20:00,31.9,28.2,30.12,SSE,147,0.8,1.3,86,0.00,,,0.00,WUHU216HW,2013-02-09 05:20:00,
2013-02-08 23:25:00,31.9,27.9,30.13,ESE,113,0.4,1.3,85,0.00,,,0.00,WUHU216HW,2013-02-09 05:25:00,
2013-02-08 23:30:00,31.9,28.2,30.12,ESE,113,0.2,0.4,86,0.00,,,0.00,WUHU216HW,2013-02-09 05:30:00,
2013-02-08 23:35:00,31.9,28.2,30.12,ESE,113,0.4,0.7,86,0.00,,,0.00,WUHU216HW,2013-02-09 05:35:00,
2013-02-08 23:40:00,31.9,28.2,30.12,East,90,0.2,0.7,86,0.00,,,0.00,WUHU216HW,2013-02-09 05:40:00,
2013-02-08 23:45:00,31.7,28.0,30.12,ESE,120,0.3,0.4,86,0.00,,,0.00,WUHU216HW,2013-02-09 05:45:00,
2013-02-08 23:50:00,31.7,28.0,30.12,SE,135,0.7,1.1,86,0.00,,,0.00,WUHU216HW,2013-02-09 05:50:00,
2013-02-08 23:55:00,31.9,28.2,30.13,ESE,113,0.6,1.1,86,0.00,,,0.00,WUHU216HW,2013-02-09 05:55:00,